Weather in Putyatino

Russia / Lipetsk Oblast     53°02′50″N   39°45′35″E
temp.,
°C
wind,
m/s
gust,
m/s
humid.,
%
clouds,
%
prec.,
mm/h
press.,
hPa
HPBL,
m
19 january, tue
tue1900:00−18nne1198100 0.3 101922
03:00−20n2298100 0.4 101822
06:00−22nw119996 0.0 101820
09:00−21nw229891 0.1 101926
12:00−19nw119355 0.0 1019122
15:00−20nw239562 0.0 1017101
18:00−21nw2296100 0.0 101920
21:00−21wnw2297100 0.0 101933
20 january, wed
wed2000:00−19w2297100 0.1 101977
03:00−19w3396100 0.1 102066
06:00−17wnw359694 0.1 1020183
09:00−17w369697 0.3 1021173
12:00−15wnw359374 0.1 1022232
15:00−15w359465 0.1 1022162
18:00−18w349562 0.0 102462
21:00−19w349531 0.0 102567
21 january, thu
thu2100:00−19wsw34920 0.0 102652
03:00−20wsw34910 0.0 102656
06:00−20sw369545 0.0 1025103
09:00−18ssw5109250 0.0 1025228
12:00−14ssw61189100 0.0 1022320
15:00−11ssw81594100 0.3 1019510
18:00−7sw71694100 1.1 1017693
21:00−4wsw71494100 2.1 1015699
22 january, fri
fri2200:00−2wsw7159399 0.4 1014687
03:000wsw7149099 0.4 1014754
06:00+1wsw61390100 0.0 1014756
09:00+1wsw61292100 0.0 1015537
12:00+1wsw51096100 0.0 1015440
15:00+1sw5109599 0.0 1015404
18:00+1sw51091100 0.0 1014513
21:00+1sw61094100 0.0 1014533
23 january, sat
sat2300:00+1ssw51196100 0.0 1014495
03:00+1sw61194100 0.0 1014481
06:00+1sw61295100 0.0 1014509
09:00+1ssw61197100 0.0 1014527
12:00+1ssw512100100 0.0 1014473
15:00+1ssw51299100 0.0 1014408
18:00+1ssw41099100 0.0 1014324
21:00+2ssw41099100 0.0 1014276